Date_and_time,latitude,longitude,wind_speed,RelWindDirFrom,WindDirFrom,air_pressure,air_temperature,relative_humidity,Temp,platform_speed_wrt_ground,air_pressure_at_mean_sea_level,platform_orientation
2019-02-21 23:40,50.6304533333333,-96.9807616666667,2.4,4.0,289,995.50,-10.0,62,0.44,0.0,1024.62,142.0
2019-02-21 23:50,50.63045,-96.9807616666667,2.1,2.9,268,995.56,-10.3,63,0.44,0.0,1024.71,142.0
2019-02-22 00:00,50.6304516666667,-96.9807616666667,1.2,2.0,290,995.63,-10.5,64,0.44,0.0,1024.80,90.0
2019-02-22 00:10,50.6304516666667,-96.9807633333333,1.0,1.5,288,995.68,-10.7,64,0.44,0.0,1024.85,90.0
2019-02-22 00:20,50.6304516666667,-96.9807633333333,1.6,2.5,270,995.78,-10.9,65,0.44,0.0,1024.97,90.0
2019-02-22 00:30,50.6304383333333,-96.9807666666667,2.6,3.4,272,995.87,-11.1,65,0.44,0.0,1025.08,90.0
2019-02-22 00:40,50.6304483333333,-96.98077,2.9,3.8,276,995.91,-11.3,66,0.44,0.0,1025.13,90.0
2019-02-22 00:50,50.63045,-96.9807716666667,3.4,4.3,301,995.84,-11.2,65,0.44,0.0,1025.07,90.0
2019-02-22 01:00,50.6304516666667,-96.9807733333333,3.7,4.9,297,995.85,-11.2,64,0.44,0.0,1025.07,270.0
2019-02-22 01:10,50.6304516666667,-96.980775,2.9,4.1,287,995.98,-11.3,65,0.45,0.0,1025.22,270.0
2019-02-22 01:20,50.6304533333333,-96.980775,2.9,3.8,282,996.10,-11.5,66,0.45,0.0,1025.35,270.0
2019-02-22 01:30,50.6304533333333,-96.980775,3.0,3.9,272,996.15,-11.6,66,0.45,0.0,1025.42,270.0
2019-02-22 01:40,50.6304533333333,-96.9807733333333,3.1,4.3,261,996.21,-11.9,67,0.45,0.0,1025.52,270.0
2019-02-22 01:50,50.6304733333333,-96.9807716666667,3.0,3.7,260,996.26,-12.1,68,0.45,0.0,1025.59,270.0
2019-02-22 02:00,50.6304633333333,-96.9807733333333,3.3,4.2,255,996.32,-12.2,68,0.45,0.0,1025.66,356.8
2019-02-22 02:10,50.630465,-96.98078,4.4,6.1,249,996.42,-12.6,69,0.45,0.0,1025.81,356.8
2019-02-22 02:20,50.6304533333333,-96.9807366666667,4.5,5.9,259,996.45,-12.8,69,0.45,0.0,1025.86,356.8
2019-02-22 02:30,50.6304516666667,-96.980775,4.4,6.2,268,996.44,-12.8,69,0.45,0.0,1025.86,356.8
2019-02-22 02:40,50.6304516666667,-96.98077,3.9,5.2,267,996.55,-13.0,70,0.45,0.0,1025.98,356.8
2019-02-22 02:50,50.6304516666667,-96.9807683333333,4.0,5.3,273,996.57,-13.1,70,0.45,0.0,1026.00,356.8
2019-02-22 03:00,50.6304516666667,-96.98077,4.0,5.3,280,996.65,-13.2,71,0.45,0.0,1026.11,270.0
2019-02-22 03:10,50.6304516666667,-96.98077,3.8,4.8,270,996.70,-13.4,71,0.46,0.0,1026.17,270.0
2019-02-22 03:20,50.6304516666667,-96.9807716666667,3.8,4.8,275,996.76,-13.5,72,0.46,0.0,1026.24,270.0
2019-02-22 03:30,50.6304516666667,-96.98077,3.6,4.8,274,996.87,-13.6,72,0.46,0.0,1026.39,270.0
2019-02-22 03:40,50.6304516666667,-96.98077,3.4,4.2,274,996.91,-13.8,73,0.46,0.0,1026.44,270.0
2019-02-22 03:50,50.6304616666667,-96.98077,3.7,4.6,275,997.04,-13.9,74,0.46,0.0,1026.60,270.0
2019-02-22 04:00,50.6304433333333,-96.980765,3.3,4.4,271,997.19,-14.1,74,0.46,0.0,1026.78,360.0
2019-02-22 04:10,50.6304516666667,-96.9807666666667,3.5,4.8,276,997.26,-14.3,75,0.46,0.0,1026.87,360.0
2019-02-22 04:20,50.6304516666667,-96.980765,3.3,4.0,276,997.29,-14.3,75,0.46,0.0,1026.92,360.0
2019-02-22 04:30,50.6304533333333,-96.9807616666667,3.6,4.5,273,997.28,-14.4,76,0.46,0.0,1026.92,360.0
2019-02-22 04:40,50.6304533333333,-96.9807616666667,3.4,4.6,266,997.33,-14.5,76,0.46,0.0,1026.98,360.0
2019-02-22 04:50,50.6304566666667,-96.980775,2.1,3.3,266,997.36,-14.5,77,0.46,0.0,1027.01,360.0
2019-02-22 05:00,50.63046,-96.9807566666667,0.6,1.6,225,997.39,-14.9,78,0.46,0.0,1027.08,125.3
2019-02-22 05:10,50.6304616666667,-96.9807616666667,1.8,2.4,244,997.41,-15.0,79,0.46,0.0,1027.10,125.3
2019-02-22 05:20,50.6304583333333,-96.9807666666667,1.6,2.5,244,997.42,-14.9,80,0.46,0.0,1027.12,125.3
2019-02-22 05:30,50.6304633333333,-96.9807683333333,1.4,2.1,231,997.43,-14.9,81,0.46,0.0,1027.14,125.3
2019-02-22 05:40,50.6304633333333,-96.98077,0.8,2.2,16,997.42,-14.8,84,0.46,0.0,1027.14,125.3
2019-02-22 05:50,50.6304733333333,-96.9807716666667,0.1,1.3,290,997.50,-14.9,85,0.46,0.0,1027.24,125.3
2019-02-22 06:00,50.6304683333333,-96.98077,1.6,2.9,246,997.65,-15.2,86,0.46,0.0,1027.42,18.9
2019-02-22 06:10,50.63045,-96.98076,2.4,3.8,244,997.70,-15.3,86,0.46,0.0,1027.47,18.9
2019-02-22 06:20,50.6304383333333,-96.9807716666667,3.4,5.4,249,997.67,-15.3,86,0.46,0.0,1027.46,18.9
2019-02-22 06:30,50.6304683333333,-96.9807716666667,4.1,5.6,258,997.67,-15.4,87,0.46,0.0,1027.46,18.9
2019-02-22 06:40,50.6304516666667,-96.9807633333333,4.6,6.4,264,997.67,-15.4,87,0.46,0.0,1027.47,18.9
2019-02-22 06:50,50.63045,-96.9807566666667,3.9,5.7,256,997.66,-15.6,87,0.46,0.0,1027.48,18.9
2019-02-22 07:00,50.6304516666667,-96.9807583333333,3.1,4.5,251,997.61,-15.8,87,0.46,0.0,1027.45,360.0
2019-02-22 07:10,50.6304516666667,-96.98076,0.7,2.3,276,997.53,-15.8,87,0.46,0.0,1027.36,360.0
2019-02-22 07:20,50.6304533333333,-96.9807616666667,0.9,2.3,249,997.57,-16.0,87,0.46,0.0,1027.42,360.0
2019-02-22 07:30,50.6304516666667,-96.9807633333333,3.8,5.9,260,997.70,-16.2,87,0.46,0.0,1027.55,360.0
2019-02-22 07:40,50.630435,-96.9807816666667,5.2,6.8,259,997.83,-16.4,86,0.47,0.0,1027.70,360.0
2019-02-22 07:50,50.6304466666667,-96.9807716666667,3.7,5.9,252,997.79,-16.6,87,0.47,0.0,1027.69,360.0
2019-02-22 08:00,50.63045,-96.98076,3.2,4.1,246,997.78,-16.7,88,0.47,0.0,1027.70,142.0
2019-02-22 08:10,50.63045,-96.9807583333333,3.3,4.4,240,997.82,-17.0,89,0.47,0.0,1027.76,142.0
2019-02-22 08:20,50.63045,-96.980765,3.8,5.4,240,997.84,-17.2,90,0.47,0.0,1027.79,142.0
2019-02-22 08:30,50.6304333333333,-96.9807566666667,4.6,6.2,239,997.85,-17.1,90,0.47,0.0,1027.80,142.0
2019-02-22 08:40,50.630435,-96.9807866666667,4.2,5.4,240,997.78,-17.1,90,0.47,0.0,1027.74,142.0
2019-02-22 08:50,50.6304333333333,-96.98079,4.7,6.4,240,997.74,-17.1,90,0.47,0.0,1027.71,142.0
2019-02-22 09:00,50.630435,-96.9807883333333,4.3,5.2,240,997.82,-17.1,89,0.46,0.0,1027.80,203.7
2019-02-22 09:10,50.6304366666667,-96.9807866666667,4.0,5.4,245,997.72,-17.2,89,0.46,0.0,1027.71,203.7
2019-02-22 09:20,50.6304366666667,-96.9807766666667,3.6,4.6,256,997.61,-17.3,89,0.46,0.0,1027.61,203.7
2019-02-22 09:30,50.6304433333333,-96.98078,2.8,4.8,261,997.51,-17.3,89,0.45,0.0,1027.52,203.7
2019-02-22 09:40,50.6304433333333,-96.9807766666667,2.1,3.0,203,997.46,-17.5,89,0.46,0.0,1027.50,203.7
2019-02-22 09:50,50.630445,-96.9807766666667,2.8,3.7,185,997.48,-17.8,90,0.46,0.0,1027.54,203.7
2019-02-22 10:00,50.6304466666667,-96.980775,4.7,5.6,184,997.40,-17.8,90,0.46,0.0,1027.48,234.7
2019-02-22 10:10,50.6304433333333,-96.980775,3.8,4.6,186,997.33,-17.9,91,0.46,0.0,1027.42,234.7
2019-02-22 10:20,50.6304416666667,-96.980775,3.5,4.0,189,997.25,-17.9,91,0.46,0.0,1027.33,234.7
2019-02-22 10:30,50.6304383333333,-96.980765,2.9,3.5,194,997.26,-18.0,92,0.46,0.0,1027.34,234.7
2019-02-22 10:40,50.630435,-96.98076,3.2,3.6,189,997.30,-18.1,92,0.46,0.0,1027.40,234.7
2019-02-22 10:50,50.6304433333333,-96.98077,2.6,3.3,198,997.34,-18.1,92,0.46,0.0,1027.43,234.7
2019-02-22 11:00,50.63044,-96.9807766666667,2.8,3.6,183,997.45,-18.2,92,0.46,0.0,1027.56,216.6
2019-02-22 11:10,50.6304383333333,-96.9807783333333,3.5,4.1,185,997.46,-18.4,92,0.46,0.0,1027.59,216.6
2019-02-22 11:20,50.6304383333333,-96.9807766666667,3.6,4.7,182,997.47,-18.7,92,0.46,0.0,1027.61,216.6
2019-02-22 11:30,50.6304366666667,-96.980775,4.0,4.9,184,997.46,-18.7,93,0.46,0.0,1027.62,216.6
2019-02-22 11:40,50.6304383333333,-96.980775,2.9,3.8,198,997.44,-18.8,92,0.46,0.0,1027.62,216.6
2019-02-22 11:50,50.6304383333333,-96.980775,2.7,3.1,204,997.37,-18.8,91,0.46,0.0,1027.56,216.6
2019-02-22 12:00,50.6304383333333,-96.9807733333333,2.5,3.2,191,997.36,-18.8,91,0.45,0.0,1027.54,66.4
2019-02-22 12:10,50.6304533333333,-96.9807683333333,3.3,3.7,181,997.43,-18.9,90,0.45,0.0,1027.62,66.4
2019-02-22 12:20,50.6304483333333,-96.980775,3.6,4.3,184,997.41,-18.9,90,0.45,0.0,1027.61,66.4
2019-02-22 12:30,50.63043,-96.98076,4.3,5.6,182,997.34,-18.8,90,0.45,0.0,1027.54,66.4
2019-02-22 12:40,50.63044,-96.9807566666667,4.9,5.7,181,997.28,-18.7,90,0.45,0.0,1027.46,66.4
2019-02-22 12:50,50.6304466666667,-96.9807683333333,5.1,6.4,180,997.33,-18.4,90,0.45,0.0,1027.51,66.4
2019-02-22 13:00,50.6304483333333,-96.9807683333333,5.3,6.6,174,997.24,-18.3,90,0.45,0.0,1027.43,90.0
2019-02-22 13:10,50.6304466666667,-96.9807716666667,4.2,5.5,178,997.30,-18.1,90,0.45,0.0,1027.48,90.0
2019-02-22 13:20,50.6304483333333,-96.9807716666667,3.7,4.7,179,997.26,-17.9,91,0.45,0.0,1027.44,90.0
2019-02-22 13:30,50.6304566666667,-96.9807733333333,3.6,4.5,177,997.22,-17.6,91,0.45,0.0,1027.38,90.0
2019-02-22 13:40,50.630445,-96.980775,4.1,4.8,176,997.20,-17.2,92,0.45,0.0,1027.34,90.0
2019-02-22 13:50,50.6304466666667,-96.980775,4.2,5.1,174,997.13,-16.8,93,0.45,0.0,1027.24,90.0
2019-02-22 14:00,50.6304466666667,-96.9807716666667,3.7,4.6,177,997.11,-16.5,93,0.45,0.0,1027.21,38.0
2019-02-22 14:10,50.6304483333333,-96.9807683333333,4.4,5.6,177,997.09,-16.1,93,0.45,0.0,1027.17,38.0
2019-02-22 14:20,50.6304466666667,-96.9807683333333,4.3,5.4,184,997.07,-15.7,94,0.44,0.0,1027.11,38.0
2019-02-22 14:30,50.6304483333333,-96.9807683333333,4.7,6.0,193,997.05,-15.4,93,0.45,0.0,1027.07,38.0
2019-02-22 14:40,50.6304283333333,-96.9807666666667,3.9,5.0,199,997.11,-15.2,93,0.45,0.0,1027.10,38.0
2019-02-22 14:50,50.6304516666667,-96.9807666666667,4.8,6.2,199,997.10,-15.1,92,0.44,0.0,1027.08,38.0
2019-02-22 15:00,50.6304366666667,-96.98076,5.6,8.3,190,997.00,-15.2,92,0.44,0.0,1026.96,125.3
2019-02-22 15:10,50.6304433333333,-96.9807616666667,5.7,7.2,179,997.03,-15.0,90,0.44,0.0,1026.98,125.3
2019-02-22 15:20,50.6304433333333,-96.9807633333333,7.6,9.4,174,997.06,-15.0,89,0.44,0.0,1026.99,125.3
2019-02-22 15:30,50.630445,-96.9807633333333,8.0,9.7,179,997.20,-14.8,88,0.44,0.0,1027.10,125.3
2019-02-22 15:40,50.630445,-96.980765,9.0,11.5,182,997.29,-14.4,87,0.44,0.0,1027.14,125.3
2019-02-22 15:50,50.6304466666667,-96.9807666666667,9.4,11.4,183,997.25,-14.1,86,0.44,0.0,1027.07,125.3
2019-02-22 16:00,50.6304466666667,-96.9807666666667,9.6,12.0,186,997.36,-13.7,86,0.44,0.0,1027.14,0.0
2019-02-22 16:10,50.630445,-96.9807666666667,9.7,12.5,192,997.51,-13.3,84,0.44,0.0,1027.24,0.0
2019-02-22 16:20,50.630445,-96.9807683333333,9.7,12.1,192,997.53,-13.0,82,0.44,0.0,1027.23,0.0
2019-02-22 16:30,50.630445,-96.9807683333333,10.9,15.0,195,997.50,-12.8,82,0.44,0.0,1027.18,0.0
2019-02-22 16:40,50.6304433333333,-96.9807683333333,9.5,12.1,193,997.47,-12.7,81,0.44,0.0,1027.13,0.0
2019-02-22 16:50,50.6304433333333,-96.98077,9.7,12.0,186,997.38,-12.7,80,0.44,0.0,1027.04,0.0
2019-02-22 17:00,50.6304416666667,-96.98077,9.2,11.5,189,997.43,-12.7,80,0.44,0.0,1027.09,167.4
2019-02-22 17:10,50.6304433333333,-96.98077,8.6,11.2,196,997.50,-12.4,79,0.44,0.0,1027.14,167.4
2019-02-22 17:20,50.6304433333333,-96.9807716666667,9.2,12.1,188,997.41,-12.2,77,0.44,0.0,1027.02,167.4
2019-02-22 17:30,50.6304433333333,-96.9807716666667,9.6,11.5,178,997.39,-12.1,76,0.44,0.0,1026.97,167.4
2019-02-22 17:40,50.6304433333333,-96.9807733333333,9.2,11.7,179,997.52,-12.1,76,0.44,0.0,1027.09,167.4
2019-02-22 17:50,50.6304433333333,-96.980775,8.1,9.9,180,997.59,-11.8,75,0.44,0.0,1027.13,167.4
2019-02-22 18:00,50.630445,-96.9807783333333,9.4,10.9,175,997.59,-11.7,74,0.44,0.0,1027.09,286.8
2019-02-22 18:10,50.6304416666667,-96.98078,9.7,11.4,174,997.46,-11.6,73,0.44,0.0,1026.94,286.8
2019-02-22 18:20,50.6304416666667,-96.9807816666667,9.1,10.4,178,997.33,-11.4,72,0.44,0.0,1026.78,286.8
2019-02-22 18:30,50.6304433333333,-96.98078,9.7,12.1,175,997.22,-11.2,72,0.44,0.0,1026.65,286.8
2019-02-22 18:40,50.630445,-96.9807783333333,10.4,12.5,184,997.30,-11.1,71,0.44,0.0,1026.73,286.8
2019-02-22 18:50,50.6304433333333,-96.9807766666667,9.6,11.7,184,997.36,-11.0,70,0.44,0.0,1026.78,286.8
2019-02-22 19:00,50.6304433333333,-96.9807733333333,8.8,10.8,183,997.22,-11.0,70,0.44,0.0,1026.63,192.6
2019-02-22 19:10,50.6304433333333,-96.980775,9.9,11.4,179,997.20,-11.0,69,0.44,0.0,1026.58,192.6
2019-02-22 19:20,50.6304116666667,-96.980745,9.2,11.4,180,997.21,-10.8,69,0.44,0.0,1026.59,192.6
2019-02-22 19:30,50.630435,-96.9807666666667,10.2,12.3,180,997.15,-10.7,67,0.44,0.0,1026.52,192.6
2019-02-22 19:40,50.630435,-96.9807683333333,10.0,11.8,180,997.15,-10.8,68,0.44,0.0,1026.50,192.6
2019-02-22 19:50,50.6304366666667,-96.9807633333333,10.0,12.1,183,997.09,-10.8,67,0.44,0.0,1026.44,192.6
2019-02-22 20:00,50.6304383333333,-96.9807583333333,8.7,12.2,182,997.04,-10.7,67,0.44,0.0,1026.38,90.0
2019-02-22 20:10,50.63044,-96.98076,8.8,11.2,174,996.89,-10.5,66,0.44,0.0,1026.20,90.0
2019-02-22 20:20,50.6304416666667,-96.9807633333333,9.2,10.4,177,996.69,-10.6,66,0.44,0.0,1025.99,90.0
2019-02-22 20:30,50.63043,-96.98076,8.7,10.3,174,996.67,-10.6,66,0.44,0.0,1025.96,90.0
2019-02-22 20:40,50.6304533333333,-96.9807766666667,8.4,10.3,183,996.62,-10.6,66,0.44,0.0,1025.90,90.0
2019-02-22 20:50,50.630455,-96.9807733333333,7.3,8.9,179,996.57,-10.5,65,0.44,0.0,1025.85,90.0
2019-02-22 21:00,50.6304533333333,-96.9807683333333,7.7,9.1,183,996.62,-10.4,65,0.44,0.0,1025.89,49.4
2019-02-22 21:10,50.6304483333333,-96.980765,8.0,9.3,175,996.62,-10.3,64,0.44,0.0,1025.88,49.4
2019-02-22 21:20,50.6304383333333,-96.980765,8.0,9.5,173,996.51,-10.4,65,0.44,0.0,1025.76,49.4
2019-02-22 21:30,50.6304433333333,-96.98077,8.0,9.9,175,996.47,-10.4,65,0.44,0.0,1025.72,49.4
2019-02-22 21:40,50.6304433333333,-96.980775,8.6,9.7,180,996.32,-10.5,65,0.45,0.0,1025.58,49.4
2019-02-22 21:50,50.6304433333333,-96.9807733333333,8.9,10.3,182,996.31,-10.5,65,0.45,0.0,1025.57,49.4
2019-02-22 22:00,50.6304433333333,-96.98077,9.1,11.0,183,996.32,-10.7,65,0.45,0.0,1025.57,90.0
2019-02-22 22:10,50.630445,-96.9807716666667,9.7,12.3,182,996.36,-11.0,67,0.45,0.0,1025.64,90.0
2019-02-22 22:20,50.6304433333333,-96.98077,9.5,11.2,183,996.45,-11.2,67,0.46,0.0,1025.74,90.0
2019-02-22 22:30,50.6304433333333,-96.98077,9.3,11.9,187,996.53,-11.2,67,0.46,0.0,1025.83,90.0
2019-02-22 22:40,50.6304433333333,-96.9807683333333,10.4,12.6,187,996.56,-11.4,67,0.45,0.0,1025.86,90.0
2019-02-22 22:50,50.630445,-96.98077,10.1,13.3,188,996.62,-11.7,68,0.46,0.0,1025.93,90.0
2019-02-22 23:00,50.630445,-96.98077,9.5,13.4,193,996.67,-11.9,68,0.46,0.0,1025.98,270.0
2019-02-22 23:10,50.630445,-96.98077,11.5,15.3,189,996.66,-12.2,70,0.46,0.0,1026.00,270.0
2019-02-22 23:20,50.6304516666667,-96.98079,12.5,14.8,187,996.51,-12.6,71,0.46,0.0,1025.87,270.0
2019-02-22 23:30,50.6304466666667,-96.980775,11.7,15.5,183,996.35,-12.8,72,0.46,0.0,1025.72,270.0
2019-02-22 23:40,50.6304433333333,-96.98077,10.3,12.9,184,996.22,-13.2,73,0.46,0.0,1025.61,270.0
2019-02-22 23:50,50.6304416666667,-96.9807716666667,9.7,11.7,185,996.21,-13.6,74,0.46,0.0,1025.63,270.0
